COSMOS 1275 DEB, 42202

Orbit data source: Space-Track

COSMOS 1275 DEB, 42202 is space debris in LEO originally from a launch on Thu, 04 Jun 1981 UTC launched from the Plesetsk Missile And Space Complex (PKMTR). Debris objects in space refer to the collection of defunct objects orbiting the Earth. Examples of debris include non-operational satellites, rocket bodies, and fragments generated from explosions, collisions, or faulty payload assembly.

Loading next visibility...
Identifier
42202, 1981-053TS
Orbit
LEO
Country
Flag of CISCIS
Related business
Manufacturer
Unknown
Mission
Spacecraft
Bus & Motor
Unknown
Mass
Unknown
Launch date (UTC)
1981-06-04 (45 years ago)
Launch vehicle
Unknown
Launch site
Plesetsk Missile And Space Complex (PKMTR)
Object type
Payload
Rocket body
Debris
Shape & HBR
Unknown shape, 0.1 m
Radar Cross Section
Small (<0.1 m²)

Expand to show TLE details & history
Last TLE update: 2 days ago

TLE from 2 days ago
0 COSMOS 1275 DEB
1 42202U 81053TS  26205.55045348  .00000574  00000-0  46362-3 0  9996
2 42202  82.8344 288.0884 0051976 173.6748 252.7939 13.88059261640508
Epoch: 2026-07-24T13:12Z
TLE epoch observation values (Epoch: 2026-07-24T13:12:39.180Z)
Latitude
65.00504°
Longitude
163.21066°
Altitude
958.087 km
Speed
7.373 km/s
True Right ascension
20h 14m 35s
True Declination
64° 52' 36"
Sunlit
Object was in daylight at epoch
Visualization orbit readout
Latitude
Unknown
Longitude
Unknown
Altitude
Unknown
Speed
Unknown
Apparent Right ascension
Unknown
Apparent Declination
Unknown
Sunlit
N/A
Visualization observer readout
Local Sidereal Time
01:15:10
Azimuth
Unknown
Elevation
Unknown
Doppler factor
Unknown
Orbital elements
Apogee altitude
970.573 km
Perigee altitude
894.577 km
Semi-major axis
7,310.712 km
Eccentricity
0.0052
Inclination
82.8344°
RAAN
288.0884°
Arg. of periapsis
173.6748°
True anomaly
252.22605°
Mean anomaly
252.7939°
Eccentric anomaly
252.50987°
Mean motion
3.47219 °/min
Orbital period
103.68 mins
BSTAR
0.00046362
Loading maneuver chart data...
Computing Atmospheric mass density...
Loading historical data...
Loading historical data...
Loading historical data...
Loading historical data...
Loading historical data...
Loading historical data...
Loading historical data...

Documentation

Showing up to 5 results
|